Weather History for Borger, TX

Change the Weather History Date:

Thursday, April 4, 2013

  Actual Average Record
Temperature  
Mean Temperature 50 °F 55 °F  
Max Temperature 69 °F 69 °F 90 °F (1967)
Min Temperature 30 °F 41 °F 20 °F (1979)
Degree Days  
Heating Degree Days 15 10  
Month to date heating degree days 91 42  
Since 1 July heating degree days 3271 3519  
Cooling Degree Days 0 1  
Month to date cooling degree days 0 1  
Year to date cooling degree days 0 8  
Moisture  
Dew Point 31 °F    
Average Humidity 60    
Maximum Humidity 96    
Minimum Humidity 24    
Precipitation  
Precipitation 0.00 in 0.05 in 0.88 in (1997)
Month to date precipitation 0.01 0.22  
Year to date precipitation 3.35 2.84  
Snow  
Snow 0.00 in - 5.20 in (1970)
Month to date snowfall T  
Since 1 July snowfall 27.5  
Snow Depth 0.00 in    
Sea Level Pressure  
Sea Level Pressure 30.17 in    
Wind  
Wind Speed 4 mph (East)    
Max Wind Speed 15 mph    
Max Gust Speed 20 mph    
Visibility 8 miles    
Events Fog    
T = Trace of Precipitation, MM = Missing Value Source: NWS Daily Summary

Daily Weather History Graph

Daily Weather History Graph

Search for Another Location

Airport:

Trip Planner

Search our weather history database for the weather conditions in past years. The results will help you decide how hot, cold, wet, or windy it might be!

Date:

Astronomy

Apr. 04, 2013 Rise Set
Actual Time 7:27 AM CDT 8:10 PM CDT
Civil Twilight 7:01 AM CDT 8:35 PM CDT
Nautical Twilight 6:31 AM CDT 9:06 PM CDT
Astronomical Twilight 5:59 AM CDT 9:37 PM CDT
Moon 3:44 AM CDT (4/4) 2:41 PM CDT (4/4)
Length of Visible Light 13h 34m
Length of Day
12h 42m
Waning Crescent, 33% of the Moon is Illuminated
Apr 4
Waning Crescent
Apr 10
New
Apr 18
First Quarter
Apr 25
Full
May 2
Last Quarter

Hourly Weather History & Observations

Time (CDT) Temp. Windchill Dew Point Humidity Pressure Visibility Wind Dir Wind Speed Gust Speed Precip Events Conditions
12:51 AM 34.0 °F 31.0 °F 30.0 °F 85% 30.25 in 10.0 mi NE 3.5 mph - N/A   Overcast
1:09 AM 33.8 °F 28.6 °F 30.2 °F 87% 30.21 in 10.0 mi NNE 5.8 mph - N/A   Overcast
1:23 AM 33.8 °F 30.8 °F 30.2 °F 87% 30.21 in 10.0 mi NNE 3.5 mph - N/A   Overcast
1:51 AM 34.0 °F 31.0 °F 30.0 °F 85% 30.24 in 10.0 mi NNE 3.5 mph - N/A   Overcast
1:58 AM 33.8 °F 30.8 °F 30.2 °F 87% 30.20 in 10.0 mi ENE 3.5 mph - N/A   Overcast
2:51 AM 35.1 °F - 30.9 °F 85% 30.23 in 10.0 mi Calm Calm - N/A   Overcast
3:32 AM 33.8 °F 29.6 °F 30.2 °F 87% 30.18 in 9.0 mi WSW 4.6 mph - N/A   Scattered Clouds
4:51 AM 33.1 °F - 30.0 °F 89% 30.19 in 8.0 mi Calm Calm - N/A   Clear
5:51 AM 32.0 °F 25.6 °F 28.9 °F 88% 30.19 in 7.0 mi WNW 6.9 mph - N/A   Clear
7:51 AM 30.9 °F - 28.0 °F 89% 30.22 in 4.0 mi Calm Calm - N/A   Clear
8:51 AM 33.1 °F - 30.0 °F 89% 30.22 in 4.0 mi Calm Calm - N/A   Clear
8:53 AM 32.0 °F 28.7 °F 30.2 °F 93% 30.19 in 1.2 mi East 3.5 mph - N/A   Partly Cloudy
8:57 AM 30.2 °F - 28.4 °F 93% 30.19 in 0.2 mi Calm Calm - N/A Fog Light Freezing Fog
9:13 AM 33.8 °F - 30.2 °F 87% 30.19 in 1.0 mi Calm Calm - N/A   Mist
9:32 AM 32.0 °F - 30.2 °F 93% 30.20 in 0.5 mi Calm Calm - N/A Fog Fog
9:51 AM 34.0 °F 31.0 °F 32.0 °F 92% 30.24 in 1.0 mi ENE 3.5 mph - N/A   Mist
10:01 AM 35.6 °F 32.8 °F 32.0 °F 87% 30.20 in 2.5 mi NE 3.5 mph - N/A   Overcast
10:10 AM 35.6 °F - 33.8 °F 93% 30.20 in 4.0 mi Calm Calm - N/A   Mostly Cloudy
10:21 AM 37.4 °F - 33.8 °F 87% 30.20 in 7.0 mi Calm Calm - N/A   Partly Cloudy
10:51 AM 42.1 °F - 35.1 °F 76% 30.22 in 10.0 mi Calm Calm - N/A   Clear
11:51 AM 50.0 °F - 35.1 °F 57% 30.19 in 10.0 mi Calm Calm - N/A   Clear
12:51 PM 54.0 °F - 35.1 °F 49% 30.17 in 10.0 mi Variable 3.5 mph - N/A   Clear
1:51 PM 59.0 °F - 34.0 °F 39% 30.14 in 10.0 mi NE 3.5 mph - N/A   Clear
2:51 PM 62.1 °F - 33.1 °F 34% 30.11 in 10.0 mi Calm Calm - N/A   Clear
3:51 PM 66.0 °F - 32.0 °F 28% 30.09 in 10.0 mi Variable 3.5 mph - N/A   Clear
4:51 PM 66.0 °F - 28.9 °F 25% 30.08 in 10.0 mi ENE 3.5 mph - N/A   Clear
5:51 PM 66.9 °F - 30.0 °F 25% 30.08 in 10.0 mi East 5.8 mph - N/A   Clear
6:51 PM 66.0 °F - 30.0 °F 26% 30.09 in 10.0 mi ESE 6.9 mph - N/A   Clear
7:51 PM 63.0 °F - 27.0 °F 26% 30.09 in 10.0 mi ESE 8.1 mph - N/A   Clear
8:51 PM 59.0 °F - 27.0 °F 29% 30.11 in 10.0 mi SSE 5.8 mph - N/A   Clear
9:51 PM 55.9 °F - 30.0 °F 37% 30.13 in 10.0 mi SSE 9.2 mph - N/A   Clear
10:51 PM 53.1 °F - 32.0 °F 45% 30.12 in 10.0 mi SSE 8.1 mph - N/A   Clear
11:51 PM 51.1 °F - 36.0 °F 56% 30.10 in 10.0 mi SSE 10.4 mph 16.1 mph N/A   Clear